Terminal Aerodrome Forecast
Issued by NWS

Home | Current Version | Previous Version | Text Only | Print | Product List | Glossary Off
Versions: 1 2 3 4 5 6 7 8 9 10 11 12 13 14 15 16 17 18 19 20 21 22 23 24 25 26 27 28 29 30 31 32 33 34 35 36 37 38 39 40 41 42 43 44 45 46 47 48 49 50

000
FTUS41 KCTP 291732
TAFBFD
TAF
KBFD 291732Z 2918/3018 17010G17KT 2SM -SN OVC050
     FM291900 16009G19KT 1SM -SN BR OVC015
     FM292100 18010G20KT 1SM -SN BR OVC003
     FM300700 30010G18KT 3SM -SN OVC004
     FM301500 31014G21KT 3SM -SHSN OVC015=

USA.gov is the U.S. government's official web portal to all federal, state and local government web resources and services.